EW3693 Weather Reports


time (UTC)temp
F
wind
direction
speed
knots
gust
knots
rain 1hr
in
rain 24hr
in
rain mn
in
humidity
%
barometer
mb
20260901204517 59 0 8.7 11.3 0.00 0.02 0.02 93 1018.8
20260901203517 58 0 9.6 13.9 0.00 0.02 0.02 94 1018.8
20260901202517 58 0 5.2 7.8 0.00 0.02 0.02 94 1018.7
20260901201517 57 0 4.3 7.0 0.00 0.02 0.02 94 1018.7
20260901200517 57 0 4.3 7.8 0.00 0.02 0.02 94 1018.6
20260901195517 57 0 4.3 7.8 0.00 0.02 0.02 94 1018.7
20260901194517 57 0 2.6 5.2 0.00 0.02 0.02 93 1018.6
20260901193537 58 248 3.5 6.1 0.00 0.02 0.02 93 1018.6
20260901192517 58 0 4.3 7.8 0.00 0.02 0.02 93 1018.6
20260901191517 58 0 5.2 7.8 0.00 0.02 0.02 93 1018.5
20260901190537 59 0 6.1 8.7 0.00 0.02 0.02 92 1018.4
20260901185517 59 0 7.0 10.4 0.00 0.02 0.02 92 1018.3
20260901184517 59 0 7.8 10.4 0.00 0.02 0.02 93 1018.3
20260901183518 59 0 6.1 8.7 0.00 0.02 0.02 92 1018.1
20260901182517 60 0 7.0 9.6 0.00 0.02 0.02 92 1018.0
20260901181517 60 0 7.0 10.4 0.00 0.02 0.02 91 1017.9
20260901180517 60 0 7.0 9.6 0.00 0.02 0.02 91 1017.8
20260901175517 61 0 6.1 9.6 0.00 0.02 0.02 91 1017.9
20260901174517 61 0 6.1 8.7 0.00 0.02 0.02 90 1017.8
20260901173537 62 0 6.1 8.7 0.00 0.02 0.02 90 1017.7
20260901172517 63 0 7.0 10.4 0.00 0.02 0.02 88 1017.7
20260901171517 63 0 7.0 8.7 0.00 0.02 0.02 88 1017.5
20260901170517 63 0 7.0 8.7 0.00 0.02 0.02 88 1017.5
20260901165517 64 0 7.8 9.6 0.00 0.14 0.02 88 1017.5
20260901164517 64 0 8.7 10.4 0.00 0.14 0.02 87 1017.6
20260901163517 64 0 10.4 16.5 0.00 0.14 0.02 86 1017.5
20260901162537 65 0 13.0 19.1 0.00 0.14 0.02 86 1017.6
20260901161517 66 0 16.5 21.7 0.00 0.14 0.02 85 1017.4
20260901160517 65 0 13.9 17.4 0.00 0.14 0.02 86 1017.6
20260901155517 66 0 13.9 18.2 0.00 0.24 0.02 86 1017.3
20260901154517 64 0 13.0 19.1 0.00 0.24 0.02 88 1017.3
20260901153516 64 0 13.9 17.4 0.00 0.24 0.02 88 1017.2
20260901152517 64 0 13.0 16.5 0.00 0.24 0.02 89 1017.1
20260901151516 64 0 11.3 16.5 0.00 0.24 0.02 89 1017.1
20260901150537 65 0 12.2 15.6 0.00 0.24 0.02 89 1017.0
20260901145517 65 0 10.4 15.6 0.00 0.24 0.02 88 1016.9
20260901144517 66 0 11.3 14.8 0.00 0.24 0.02 89 1016.8
20260901143516 66 0 12.2 17.4 0.00 0.24 0.02 87 1016.8
20260901142536 68 0 13.0 19.1 0.00 0.24 0.02 84 1016.8
20260901141517 70 0 8.7 12.2 0.00 0.24 0.02 87 1016.7
20260901140516 68 0 8.7 11.3 0.00 0.24 0.02 91 1016.7
20260901135516 66 0 7.8 9.6 0.01 0.24 0.02 94 1016.8
20260901134536 63 0 7.8 11.3 0.01 0.24 0.02 93 1016.8
20260901133517 63 0 9.6 12.2 0.01 0.24 0.02 93 1016.8
20260901132537 63 0 7.8 10.4 0.01 0.24 0.02 92 1017.0
20260901131517 63 0 7.8 13.9 0.01 0.24 0.02 92 1016.8
20260901130556 63 0 13.0 19.1 0.01 0.24 0.02 89 1017.1
20260901125517 65 0 10.4 17.4 0.00 0.23 0.01 86 1016.6
20260901124516 68 0 12.2 18.2 0.00 0.23 0.01 84 1016.6
20260901123536 68 0 10.4 13.9 0.00 0.23 0.01 86 1016.4
20260901122516 67 0 12.2 17.4 0.00 0.23 0.01 85 1016.5
20260901121537 70 0 13.0 19.1 0.00 0.23 0.01 81 1016.4
20260901120516 72 0 13.9 18.2 0.00 0.23 0.01 76 1016.3
20260901115518 72 0 13.9 18.2 0.00 0.23 0.01 76 1016.3
20260901114518 73 0 12.2 16.5 0.00 0.23 0.01 78 1016.2
20260901113518 72 0 12.2 16.5 0.00 0.23 0.01 76 1016.3
20260901112518 72 0 13.9 19.1 0.00 0.23 0.01 79 1016.3
20260901111518 72 0 11.3 16.5 0.00 0.23 0.01 81 1016.3
20260901110518 71 0 12.2 17.4 0.00 0.23 0.01 81 1016.3
20260901105518 69 0 13.0 17.4 0.00 0.24 0.01 80 1016.3
20260901104518 70 0 13.0 19.1 0.00 0.24 0.01 80 1016.2
20260901103518 70 0 13.0 18.2 0.00 0.24 0.01 79 1016.2
20260901102518 70 0 13.9 20.0 0.00 0.24 0.01 79 1016.1
20260901101518 71 0 13.0 16.5 0.00 0.24 0.01 81 1016.1
20260901100518 69 0 14.8 19.1 0.00 0.24 0.01 82 1016.0
20260901095538 69 0 11.3 14.8 0.00 0.24 0.01 83 1016.0
20260901094518 70 0 11.3 14.8 0.00 0.24 0.01 82 1016.0
20260901093538 68 0 13.0 15.6 0.00 0.24 0.01 84 1015.9
20260901092518 69 0 12.2 17.4 0.00 0.24 0.01 85 1015.8
20260901091518 68 0 12.2 14.8 0.00 0.24 0.01 85 1015.8
20260901090518 67 0 13.0 16.5 0.00 0.24 0.01 86 1015.9
20260901085518 66 0 13.0 16.5 0.00 0.24 0.01 89 1015.9
20260901084518 66 0 12.2 20.0 0.00 0.24 0.01 88 1015.8
20260901083518 67 0 12.2 15.6 0.00 0.24 0.01 89 1015.5
20260901082518 65 0 13.0 17.4 0.00 0.24 0.01 90 1015.5
20260901081538 66 0 12.2 16.5 0.00 0.24 0.01 92 1015.5
20260901080518 64 0 13.0 20.9 0.00 0.24 0.01 92 1015.4
20260901075518 65 0 14.8 20.0 0.00 0.24 0.01 93 1015.2
20260901074518 64 0 14.8 18.2 0.00 0.24 0.01 94 1015.2
20260901073518 64 0 11.3 13.9 0.00 0.24 0.01 96 1015.1
20260901072518 63 0 9.6 13.0 0.00 0.24 0.01 96 1015.0
20260901071518 62 0 10.4 14.8 0.00 0.24 0.01 97 1015.0
20260901070518 62 0 10.4 13.0 0.00 0.24 0.01 97 1014.9
20260901065518 61 0 11.3 14.8 0.00 0.24 0.01 98 1014.9
20260901064518 61 0 11.3 14.8 0.00 0.24 0.01 98 1014.8
20260901063518 61 0 12.2 16.5 0.00 0.24 0.01 98 1014.7
20260901062518 61 0 9.6 12.2 0.00 0.24 0.01 98 1014.6
20260901061558 60 0 8.7 11.3 0.00 0.24 0.01 98 1014.5
20260901060518 60 0 11.3 14.8 0.00 0.24 0.01 98 1014.4
20260901055518 60 0 9.6 12.2 0.00 0.24 0.01 98 1014.3
20260901054517 60 0 10.4 13.0 0.00 0.24 0.01 98 1014.2
20260901053538 60 0 10.4 13.9 0.00 0.24 0.01 99 1014.1
20260901052518 60 0 9.6 13.0 0.00 0.24 0.01 98 1013.9
20260901051518 59 0 10.4 13.0 0.00 0.24 0.01 98 1013.8
20260901050518 59 0 9.6 13.9 0.00 0.24 0.01 99 1013.9
20260901045518 59 0 7.8 11.3 0.00 0.24 0.01 98 1013.7
20260901044517 59 0 8.7 11.3 0.00 0.24 0.01 99 1013.6
20260901043517 59 0 10.4 13.0 0.00 0.24 0.01 99 1013.5
20260901042517 59 0 8.7 11.3 0.00 0.24 0.01 99 1013.5
20260901041517 59 0 8.7 11.3 0.00 0.24 0.01 99 1013.4
20260901040518 59 0 7.8 12.2 0.01 0.24 0.01 99 1013.3
20260901035517 59 0 7.8 10.4 0.01 0.24 0.01 98 1013.2
20260901034557 59 0 7.8 10.4 0.01 0.24 0.01 98 1013.2
20260901033517 59 0 7.8 11.3 0.01 0.24 0.01 98 1013.2
20260901032517 59 0 8.7 10.4 0.01 0.24 0.01 98 1013.2
20260901031518 59 0 7.8 10.4 0.01 0.24 0.01 98 1013.0
20260901030537 59 0 7.0 8.7 0.00 0.23 0.00 98 1013.0
20260901025517 59 0 6.1 9.6 0.00 0.23 0.00 98 1012.9
20260901024517 59 0 7.0 10.4 0.00 0.23 0.00 98 1012.9
20260901023517 59 0 7.0 10.4 0.00 0.23 0.00 98 1013.0
20260901022517 59 0 7.0 9.6 0.00 0.23 0.00 98 1012.8
20260901021517 59 0 7.0 9.6 0.00 0.23 0.00 98 1013.0
20260901020537 58 0 7.0 11.3 0.00 0.23 0.00 98 1012.9
20260901015517 58 0 7.0 10.4 0.00 0.23 0.00 98 1012.7
20260901014517 58 0 8.7 10.4 0.00 0.23 0.00 98 1012.6
20260901013517 58 0 7.8 10.4 0.00 0.23 0.00 98 1012.4
20260901012517 58 0 8.7 11.3 0.00 0.23 0.00 98 1012.3
20260901011517 58 0 7.8 10.4 0.00 0.23 0.00 98 1012.3
20260901010517 58 0 6.1 8.7 0.00 0.23 0.00 98 1012.3
20260901005517 58 0 8.7 10.4 0.00 0.23 0.00 98 1012.4
20260901004537 58 0 7.0 9.6 0.00 0.23 0.00 97 1012.3
20260901003517 58 0 8.7 11.3 0.00 0.23 0.00 98 1012.2
20260901002517 58 0 7.8 10.4 0.00 0.23 0.00 98 1012.2
20260901001517 58 0 7.8 10.4 0.00 0.23 0.00 98 1012.1
20260901000517 58 0 6.1 9.6 0.00 0.23 0.00 97 1012.0
20260831235517 58 0 7.8 10.4 0.00 0.23 0.00 97 1012.0
20260831234537 58 0 6.1 9.6 0.00 0.23 0.00 97 1011.9
20260831233537 58 0 5.2 8.7 0.00 0.23 0.00 97 1011.9
20260831232517 57 0 4.3 9.6 0.00 0.23 0.00 97 1011.9
20260831231517 57 0 5.2 9.6 0.00 0.23 0.00 97 1011.7
20260831230537 57 0 5.2 9.6 0.00 0.23 0.00 97 1011.7
20260831225517 57 0 7.0 11.3 0.00 0.23 0.00 97 1011.7
20260831224537 57 0 7.0 10.4 0.00 0.23 0.00 97 1011.7
20260831223517 57 0 5.2 9.6 0.00 0.23 0.00 97 1011.7
20260831222517 57 0 5.2 8.7 0.00 0.23 0.00 97 1011.8
20260831221517 57 225 4.3 9.6 0.00 0.23 0.00 97 1011.7
20260831220516 56 225 3.5 7.8 0.00 0.23 0.00 97 1011.8
20260831215517 56 225 2.6 4.3 0.00 0.23 0.23 96 1011.7
20260831214536 56 0 3.5 7.0 0.00 0.23 0.23 96 1011.7
20260831213516 56 0 3.5 7.0 0.00 0.23 0.23 96 1011.5
20260831212516 56 0 3.5 7.8 0.00 0.23 0.23 96 1011.5
20260831211516 56 0 4.3 9.6 0.00 0.23 0.23 96 1011.4
20260831210517 56 0 5.2 7.8 0.00 0.23 0.23 96 1011.3
20260831205517 56 0 4.3 8.7 0.00 0.24 0.23 96 1011.2